[[{"header":{"parameterUnit":"m.s-1","parameterCategory":1,"la1":30.2991,"la2":30.254,"lo1":-89.0895,"lo2":-89.0444,"dy":0.0017,"dx":0.0017,"nx":28,"ny":28,"refTime":"2025-03-12T21:00:00:Z","depth":0,"parameterNumber":2,"parameterNumberName":"U-component_of_WINDS"},"data":[0,0,0,0,0,0,0,0,0,0,0,0,0,0,0,0,0,0,0,0,0,0,0,0,0,0,0,0,0,0,0,0,0,0,0,0,0,0,0,0,0,0,0,0,0,0,0,0,0,0,0,0,0,0,0,0,0,0,-0.1829,-0.1829,0,-0.1888,-0.1888,-0.1889,-0.1941,-0.1941,-0.1942,-0.1942,-0.2001,-0.2002,-0.2003,0,0,0,0,0,0,0,0,0,0,0,0,0,-0.1761,-0.1762,-0.1829,-0.1829,-0.183,-0.1887,-0.1888,-0.1889,-0.1941,-0.1941,-0.1942,-0.1943,-0.2001,-0.2002,-0.2003,0,0,0,0,0,0,0,0,0,0,0,0,0,-0.1802,-0.1762,-0.1829,-0.1863,-0.1866,-0.1887,-0.1888,-0.1889,-0.194,-0.1941,-0.1942,-0.1943,-0.2,-0.2002,-0.2003,-0.1994,0,0,-0.2008,-0.2008,0,0,0,0,0,0,0,0,-0.18,-0.1804,-0.1857,-0.186,-0.1865,-0.1908,-0.1886,-0.1924,-0.194,-0.1912,-0.1942,-0.1943,-0.1969,-0.1973,-0.1982,-0.1997,-0.2,-0.2008,-0.2009,-0.201,-0.201,0,0,0,0,0,0,0,-0.1797,-0.1802,-0.1852,-0.1858,-0.1862,-0.1875,-0.1882,-0.1893,-0.1935,-0.1915,-0.1919,-0.1925,-0.1971,-0.1981,-0.1984,-0.2001,-0.2008,-0.2009,-0.201,-0.2011,-0.2012,-0.2011,0,0,0,0,0,0,-0.1789,-0.1799,-0.185,-0.1854,-0.1834,-0.1876,-0.1883,-0.1893,-0.1935,-0.1942,-0.1924,-0.1927,-0.1978,-0.1982,-0.1986,-0.1979,-0.201,-0.2011,-0.2012,-0.2013,-0.2012,-0.2011,0,0,0,0,0,0,-0.1787,-0.1793,-0.1848,-0.1828,-0.1836,-0.1876,-0.1886,-0.1894,-0.1903,-0.1942,-0.195,-0.1926,-0.1979,-0.1984,-0.1992,-0.1982,-0.2012,-0.2013,-0.2014,-0.2013,-0.2011,-0.1964,0,0,0,0,0,0,-0.1785,-0.1792,-0.1789,-0.1827,-0.1837,-0.1853,-0.1886,-0.1894,-0.1906,-0.191,-0.1946,-0.1953,-0.198,-0.199,-0.1994,-0.1984,-0.2014,-0.2015,-0.2013,-0.2012,-0.1966,-0.1961,-0.1956,0,0,0,0,0,-0.1782,-0.1773,-0.1788,-0.1794,-0.1834,-0.1852,-0.1857,-0.1889,-0.1905,-0.1902,-0.1927,-0.1951,-0.1982,-0.199,-0.1995,-0.1986,-0.2016,-0.2014,-0.2012,-0.1969,-0.1962,-0.1956,0,0,0,0,0,0,-0.1731,-0.1778,-0.1796,-0.1799,-0.1821,-0.1861,-0.1858,-0.1881,-0.1899,-0.1902,-0.1941,-0.1948,-0.1952,-0.197,-0.1978,-0.198,-0.2002,-0.2001,-0.1968,-0.1962,-0.1957,-0.1952,-0.2015,0,0,0,0,0,-0.172,-0.1731,-0.1772,-0.177,-0.178,-0.1817,-0.1826,-0.1849,-0.1874,-0.1883,-0.1909,-0.1932,-0.1947,-0.1955,-0.1971,-0.197,-0.1978,-0.1966,-0.1961,-0.1957,-0.1955,-0.1956,-0.1951,-0.2004,-0.2004,-0.2005,0,0,-0.1697,-0.1725,-0.1729,-0.176,-0.178,-0.1791,-0.1825,-0.1834,-0.1842,-0.1885,-0.1894,-0.1914,-0.1942,-0.1945,-0.1948,-0.196,-0.1942,-0.1954,-0.195,-0.1951,-0.1953,-0.1948,-0.1943,-0.2003,-0.2003,-0.2004,0,0,-0.1661,-0.1683,-0.1684,-0.1704,-0.1734,-0.1759,-0.1759,-0.1796,-0.1811,-0.1821,-0.1853,-0.1863,-0.1888,-0.1907,-0.1919,-0.1892,-0.1915,-0.1896,-0.1869,-0.1869,-0.1865,-0.1862,-0.1851,-0.1847,-0.1894,-0.1894,-0.1894,0,-0.1629,-0.1646,-0.1682,-0.1689,-0.1702,-0.1742,-0.1744,-0.1761,-0.1794,-0.1803,-0.1816,-0.1849,-0.187,-0.1879,-0.1872,-0.1881,-0.1882,-0.1891,-0.1863,-0.186,-0.1857,-0.1848,-0.1844,-0.1892,-0.1892,-0.1892,-0.1893,0,-0.1605,-0.1616,-0.1614,-0.1646,-0.1659,-0.1663,-0.17,-0.1708,-0.1731,-0.1754,-0.1764,-0.1792,-0.1814,-0.1818,-0.1839,-0.183,-0.1836,-0.1856,-0.1879,-0.1849,-0.1841,-0.1837,-0.1888,-0.1889,-0.189,-0.189,0,0,-0.1536,-0.1589,-0.1587,-0.1603,-0.164,-0.1649,-0.1656,-0.1679,-0.1685,-0.1708,-0.1714,-0.1735,-0.1754,-0.1768,-0.1792,-0.1793,-0.1769,-0.1813,-0.1814,-0.1803,-0.176,-0.1744,-0.1739,-0.1785,-0.1785,-0.1784,-0.1757,0,-0.1505,-0.152,-0.1553,-0.1557,-0.1568,-0.1607,-0.1613,-0.1636,-0.1659,-0.1672,-0.1696,-0.171,-0.1734,-0.1743,-0.1746,-0.1771,-0.1761,-0.1774,-0.1791,-0.1791,-0.1782,-0.1735,-0.1719,-0.1692,-0.1754,-0.1754,-0.1754,0,-0.1471,-0.1491,-0.1497,-0.1534,-0.154,-0.1545,-0.1569,-0.1581,-0.1608,-0.1625,-0.1641,-0.1668,-0.1678,-0.17,-0.1713,-0.1721,-0.173,-0.1744,-0.1744,-0.1746,-0.1769,-0.1735,-0.1684,-0.1679,-0.1749,-0.1749,-0.175,0,-0.1419,-0.1449,-0.1456,-0.1468,-0.1512,-0.1514,-0.1532,-0.1561,-0.1573,-0.1594,-0.1602,-0.1623,-0.1635,-0.1651,-0.1683,-0.1696,-0.1692,-0.1717,-0.1706,-0.1705,-0.1702,-0.1701,-0.1651,-0.1709,-0.1709,-0.1709,-0.171,0,-0.1381,-0.1383,-0.1433,-0.1438,-0.1441,-0.1479,-0.1481,-0.1503,-0.1529,-0.1538,-0.1573,-0.1581,-0.1623,-0.1636,-0.1661,-0.1668,-0.1673,-0.1686,-0.1693,-0.1683,-0.1681,-0.1688,-0.1691,-0.1708,-0.1709,-0.1709,-0.1709,0,-0.1323,-0.1358,-0.1368,-0.1409,-0.142,-0.142,-0.1455,-0.1461,-0.1486,-0.1497,-0.1502,-0.1542,-0.1559,-0.1593,-0.1619,-0.1636,-0.1637,-0.1649,-0.1628,-0.1631,-0.1618,-0.1618,-0.1569,-0.1565,-0.1626,-0.1626,-0.1625,0,-0.1296,-0.1298,-0.134,-0.1349,-0.1366,-0.138,-0.1393,-0.1431,-0.1443,-0.1475,-0.1477,-0.1497,-0.1515,-0.154,-0.1571,-0.1591,-0.1603,-0.1585,-0.1606,-0.1596,-0.1602,-0.1601,-0.1602,-0.1579,-0.1578,-0.1578,-0.1577,0,-0.1244,-0.1261,-0.1278,-0.1301,-0.1315,-0.1335,-0.1357,-0.1362,-0.1406,-0.1417,-0.1435,-0.1449,-0.1477,-0.1496,-0.1521,-0.154,-0.1565,-0.1571,-0.1569,-0.1558,-0.1545,-0.1551,-0.1613,-0.1571,-0.1572,-0.1572,-0.1572,-0.1573,-0.12,-0.1204,-0.1234,-0.1252,-0.1273,-0.1293,-0.13,-0.1327,-0.1343,-0.1369,-0.1391,-0.1407,-0.1436,-0.1472,-0.149,-0.1503,-0.1515,-0.1513,-0.1512,-0.1511,-0.1506,-0.1544,-0.1508,-0.1508,-0.1508,-0.1508,-0.1508,0,-0.1149,-0.1171,-0.1187,-0.1217,-0.1231,-0.1255,-0.1281,-0.1291,-0.1305,-0.133,-0.1348,-0.1369,-0.1388,-0.1421,-0.1443,-0.1447,-0.1459,-0.1451,-0.1451,-0.1455,-0.1494,-0.1493,-0.1441,-0.1441,-0.1441,-0.1441,-0.1441,-0.1441,-0.1124,-0.1132,-0.1153,-0.1172,-0.1194,-0.1211,-0.1223,-0.1242,-0.1262,-0.1284,-0.1301,-0.1323,-0.1351,-0.1375,-0.1394,-0.1403,-0.1409,-0.1398,-0.141,-0.1446,-0.1452,-0.1458,-0.1457,-0.1399,-0.1399,-0.137,-0.137,-0.137]},{"header":{"parameterUnit":"m.s-1","parameterCategory":1,"la1":30.2991,"la2":30.254,"lo1":-89.0895,"lo2":-89.0444,"dy":0.0017,"dx":0.0017,"nx":28,"ny":28,"refTime":"2025-03-12T21:00:00:Z","depth":0,"parameterNumber":3,"parameterNumberName":"V-component_of_WINDS"},"data":[0,0,0,0,0,0,0,0,0,0,0,0,0,0,0,0,0,0,0,0,0,0,0,0,0,0,0,0,0,0,0,0,0,0,0,0,0,0,0,0,0,0,0,0,0,0,0,0,0,0,0,0,0,0,0,0,0,0,2.5128,2.5129,0,2.5239,2.524,2.5241,2.5266,2.5265,2.5264,2.5264,2.5371,2.5374,2.5378,0,0,0,0,0,0,0,0,0,0,0,0,0,2.493,2.4934,2.5128,2.5129,2.5131,2.5239,2.524,2.5242,2.5266,2.5265,2.5264,2.5263,2.537,2.5374,2.5378,0,0,0,0,0,0,0,0,0,0,0,0,0,2.5026,2.4935,2.5128,2.5156,2.516,2.5238,2.524,2.5242,2.5266,2.5265,2.5264,2.5263,2.5368,2.5374,2.5379,2.5435,0,0,2.5395,2.5398,0,0,0,0,0,0,0,0,2.502,2.5033,2.515,2.5154,2.5158,2.5237,2.521,2.5307,2.5266,2.5226,2.5264,2.5262,2.5327,2.5336,2.5359,2.544,2.5445,2.5396,2.5399,2.5401,2.5403,0,0,0,0,0,0,0,2.5014,2.5028,2.5172,2.5152,2.5157,2.5161,2.5173,2.5228,2.5281,2.5229,2.5231,2.5244,2.5329,2.5354,2.5362,2.5446,2.5396,2.54,2.5404,2.5406,2.5577,2.5579,0,0,0,0,0,0,2.5003,2.5023,2.5168,2.5175,2.5085,2.5165,2.5179,2.5213,2.5281,2.529,2.5245,2.5245,2.5345,2.5355,2.5365,2.5435,2.5401,2.5406,2.5409,2.5576,2.5578,2.5579,0,0,0,0,0,0,2.4999,2.5016,2.5164,2.5099,2.5119,2.517,2.5208,2.5216,2.5241,2.5293,2.5302,2.5261,2.5345,2.5358,2.5418,2.5439,2.5409,2.5414,2.5575,2.5577,2.5578,2.5575,0,0,0,0,0,0,2.4993,2.5014,2.5038,2.51,2.5122,2.5216,2.5209,2.5219,2.5251,2.5252,2.531,2.5319,2.5345,2.541,2.5423,2.5446,2.5418,2.5573,2.5575,2.5578,2.5574,2.5577,2.558,0,0,0,0,0,2.4986,2.5032,2.5039,2.5056,2.5153,2.5218,2.523,2.526,2.5252,2.5276,2.5309,2.5317,2.5435,2.5416,2.5431,2.5456,2.5572,2.5575,2.5578,2.5572,2.5576,2.558,0,0,0,0,0,0,2.4969,2.504,2.5049,2.5117,2.5161,2.5222,2.5252,2.5264,2.531,2.5308,2.5342,2.5355,2.5412,2.544,2.5417,2.5513,2.5502,2.5509,2.5493,2.5497,2.55,2.5493,2.5422,0,0,0,0,0,2.4974,2.5022,2.5081,2.5135,2.5157,2.52,2.5229,2.5249,2.5295,2.5314,2.5351,2.5394,2.544,2.547,2.5516,2.5577,2.559,2.5602,2.5605,2.5607,2.5612,2.5645,2.5651,2.5589,2.5589,2.5589,0,0,2.4983,2.5028,2.5056,2.5133,2.5169,2.5216,2.5216,2.5266,2.5301,2.5321,2.538,2.5409,2.5458,2.5519,2.5548,2.5544,2.5632,2.5611,2.5612,2.5616,2.5649,2.5655,2.566,2.5591,2.5591,2.559,0,0,2.5024,2.5064,2.5113,2.5149,2.5205,2.5234,2.5245,2.5304,2.5324,2.5385,2.54,2.544,2.552,2.5554,2.5582,2.5635,2.5643,2.5648,2.5664,2.5696,2.5701,2.5705,2.5723,2.5729,2.5653,2.5653,2.5653,0,2.5028,2.5103,2.5136,2.5186,2.5218,2.5239,2.5287,2.5321,2.5387,2.5408,2.5403,2.5503,2.5538,2.5606,2.5619,2.5641,2.5654,2.5642,2.5698,2.5702,2.5707,2.5724,2.5731,2.5653,2.5653,2.5653,2.5653,0,2.5104,2.5155,2.5187,2.5254,2.5289,2.5338,2.5376,2.5407,2.5423,2.5451,2.5511,2.5554,2.5608,2.5625,2.5641,2.5695,2.5691,2.5691,2.5682,2.5713,2.5729,2.5736,2.5653,2.5653,2.5653,2.5653,0,0,2.514,2.5223,2.5234,2.5264,2.5326,2.5365,2.5413,2.5468,2.5494,2.5538,2.5578,2.5644,2.5645,2.5676,2.5695,2.5723,2.5761,2.572,2.5722,2.5726,2.5822,2.5821,2.5829,2.5767,2.5768,2.5769,2.5817,0,2.5188,2.5278,2.5309,2.5382,2.5428,2.5448,2.549,2.5531,2.5558,2.5599,2.5628,2.5674,2.5672,2.5691,2.5719,2.575,2.578,2.5747,2.5802,2.5804,2.579,2.5838,2.5838,2.5881,2.5824,2.5825,2.5826,0,2.5258,2.5305,2.5384,2.5439,2.546,2.5497,2.5549,2.5589,2.5635,2.5652,2.5687,2.5703,2.5752,2.5739,2.5805,2.5781,2.5805,2.5824,2.5826,2.5832,2.5817,2.5845,2.5896,2.5903,2.5837,2.5836,2.5835,0,2.5275,2.5358,2.5416,2.5441,2.5507,2.5532,2.5561,2.5606,2.5636,2.568,2.57,2.5748,2.5774,2.581,2.5838,2.5826,2.5901,2.5891,2.5916,2.5915,2.5931,2.593,2.5987,2.5946,2.5946,2.5946,2.5946,0,2.5327,2.5374,2.5425,2.546,2.5513,2.5545,2.5595,2.5624,2.5664,2.5703,2.5722,2.5758,2.5793,2.5833,2.5855,2.5906,2.5917,2.5931,2.5937,2.593,2.5928,2.5946,2.5944,2.5948,2.5947,2.5947,2.5947,0,2.5355,2.5392,2.5456,2.5513,2.5528,2.5564,2.5612,2.5646,2.5673,2.5722,2.5736,2.5778,2.5825,2.5857,2.5918,2.5932,2.5987,2.5991,2.5972,2.5975,2.5998,2.5995,2.6068,2.6079,2.6031,2.6032,2.6032,0,2.5386,2.5423,2.5485,2.5513,2.5542,2.5588,2.562,2.5652,2.5683,2.5738,2.5764,2.5813,2.5855,2.593,2.5964,2.601,2.6015,2.6038,2.6022,2.6014,2.6015,2.6013,2.6016,2.604,2.6041,2.6041,2.6041,0,2.5437,2.5453,2.5498,2.555,2.5587,2.5629,2.567,2.5692,2.5731,2.5765,2.5815,2.5847,2.5909,2.5957,2.6006,2.6032,2.6042,2.6046,2.6054,2.6047,2.6035,2.6041,2.5979,2.6044,2.6044,2.6044,2.6043,2.6043,2.5467,2.5501,2.5549,2.5599,2.5633,2.5671,2.5706,2.5737,2.578,2.5835,2.585,2.5902,2.5945,2.6012,2.6038,2.6077,2.6075,2.6087,2.609,2.6092,2.6092,2.6028,2.6086,2.6086,2.6086,2.6086,2.6086,0,2.5519,2.555,2.5596,2.5654,2.5692,2.57,2.5746,2.5777,2.5823,2.5863,2.5903,2.5959,2.6006,2.6043,2.609,2.6114,2.612,2.6125,2.6124,2.6129,2.6092,2.608,2.612,2.612,2.612,2.612,2.612,2.6119,2.555,2.5606,2.5627,2.57,2.5731,2.5784,2.5809,2.5843,2.5875,2.5938,2.5977,2.6001,2.604,2.6089,2.6131,2.6141,2.6157,2.6161,2.6171,2.6136,2.6132,2.6128,2.6118,2.6164,2.6164,2.6205,2.6206,2.6206]}]]